| time (UTC) | temp F | wind direction | speed MPH | gust MPH | rain 1hr in | rain 24hr in | rain mn in | humidity % | barometer mb |
| 20260502230808 | 65 | 270 | 0.0 | 0.0 | 0.00 | 0.02 | 0.02 | 51 | 1014.8 |
| 20260502230306 | 64 | 270 | 0.0 | 0.0 | 0.00 | 0.02 | 0.02 | 49 | 1014.8 |
| 20260502225802 | 67 | 270 | 0.0 | 0.0 | 0.00 | 0.02 | 0.02 | 48 | 1014.9 |
| 20260502225259 | 69 | 279 | 0.0 | 1.0 | 0.00 | 0.02 | 0.02 | 43 | 1014.7 |
| 20260502224755 | 71 | 270 | 0.0 | 0.0 | 0.00 | 0.02 | 0.02 | 43 | 1014.7 |
| 20260502224252 | 69 | 270 | 1.0 | 2.0 | 0.00 | 0.02 | 0.02 | 41 | 1014.7 |
| 20260502223750 | 68 | 90 | 0.0 | 2.0 | 0.00 | 0.02 | 0.02 | 45 | 1014.7 |
| 20260502223248 | 67 | 270 | 0.0 | 4.0 | 0.00 | 0.02 | 0.02 | 41 | 1014.7 |
| 20260502222745 | 69 | 270 | 0.0 | 2.0 | 0.00 | 0.02 | 0.02 | 37 | 1014.7 |
| 20260502222242 | 72 | 278 | 0.0 | 1.0 | 0.00 | 0.02 | 0.02 | 37 | 1014.9 |
| 20260502221738 | 71 | 303 | 0.0 | 2.0 | 0.00 | 0.02 | 0.02 | 37 | 1014.8 |
| 20260502221234 | 72 | 352 | 0.0 | 2.0 | 0.00 | 0.02 | 0.02 | 40 | 1014.8 |
| 20260502220731 | 71 | 270 | 1.0 | 1.0 | 0.00 | 0.02 | 0.02 | 43 | 1014.7 |
| 20260502220227 | 70 | 306 | 0.0 | 0.0 | 0.00 | 0.02 | 0.02 | 47 | 1014.5 |
| 20260502215724 | 67 | 299 | 3.0 | 4.0 | 0.00 | 0.02 | 0.02 | 37 | 1014.7 |
| 20260502215221 | 67 | 98 | 0.0 | 0.0 | 0.00 | 0.02 | 0.02 | 44 | 1014.6 |
| 20260502214719 | 66 | 279 | 0.0 | 2.0 | 0.00 | 0.02 | 0.02 | 43 | 1014.5 |
| 20260502214215 | 65 | 301 | 2.0 | 3.0 | 0.00 | 0.02 | 0.02 | 43 | 1014.4 |
| 20260502213713 | 66 | 308 | 3.0 | 4.0 | 0.00 | 0.02 | 0.02 | 40 | 1014.4 |
| 20260502213210 | 69 | 328 | 2.0 | 3.0 | 0.00 | 0.02 | 0.02 | 37 | 1014.6 |
| 20260502212708 | 71 | 260 | 2.0 | 2.0 | 0.00 | 0.02 | 0.02 | 42 | 1014.6 |
| 20260502212206 | 72 | 270 | 0.0 | 1.0 | 0.00 | 0.02 | 0.02 | 47 | 1014.5 |
| 20260502211702 | 69 | 157 | 0.0 | 1.0 | 0.00 | 0.02 | 0.02 | 44 | 1014.5 |
| 20260502211159 | 67 | 275 | 2.0 | 2.0 | 0.00 | 0.02 | 0.02 | 44 | 1014.6 |
| 20260502210656 | 67 | 0 | 0.0 | 2.0 | 0.00 | 0.02 | 0.02 | 40 | 1014.7 |
| 20260502210153 | 68 | 297 | 1.0 | 3.0 | 0.00 | 0.02 | 0.02 | 42 | 1014.8 |
| 20260502205650 | 69 | 285 | 0.0 | 1.0 | 0.00 | 0.02 | 0.02 | 45 | 1014.5 |
| 20260502205147 | 68 | 216 | 2.0 | 2.0 | 0.00 | 0.02 | 0.02 | 40 | 1014.6 |
| 20260502204644 | 68 | 90 | 1.0 | 1.0 | 0.00 | 0.02 | 0.02 | 46 | 1014.5 |
| 20260502204142 | 65 | 278 | 0.0 | 2.0 | 0.00 | 0.02 | 0.02 | 49 | 1014.5 |
| 20260502203638 | 65 | 270 | 2.0 | 3.0 | 0.00 | 0.02 | 0.02 | 42 | 1014.5 |
| 20260502203137 | 66 | 8 | 2.0 | 3.0 | 0.00 | 0.02 | 0.02 | 44 | 1014.6 |
| 20260502202631 | 63 | 81 | 0.0 | 1.0 | 0.00 | 0.02 | 0.02 | 49 | 1014.6 |
| 20260502202129 | 64 | 187 | 0.0 | 0.0 | 0.00 | 0.02 | 0.02 | 51 | 1014.8 |
| 20260502201626 | 61 | 187 | 1.0 | 3.0 | 0.00 | 0.02 | 0.02 | 44 | 1014.8 |
| 20260502201122 | 62 | 81 | 0.0 | 0.0 | 0.00 | 0.02 | 0.02 | 51 | 1014.8 |
| 20260502200618 | 61 | 289 | 1.0 | 2.0 | 0.00 | 0.02 | 0.02 | 48 | 1014.8 |
| 20260502200116 | 64 | 350 | 3.0 | 4.0 | 0.00 | 0.02 | 0.02 | 42 | 1014.8 |
| 20260502195614 | 63 | 349 | 2.0 | 3.0 | 0.00 | 0.02 | 0.02 | 42 | 1015.2 |
| 20260502195109 | 61 | 311 | 2.0 | 2.0 | 0.00 | 0.02 | 0.02 | 49 | 1015.2 |
| 20260502194606 | 61 | 8 | 0.0 | 1.0 | 0.00 | 0.02 | 0.02 | 47 | 1015.2 |
| 20260502194102 | 62 | 90 | 0.0 | 0.0 | 0.00 | 0.02 | 0.02 | 53 | 1015.3 |
| 20260502193600 | 62 | 270 | 0.0 | 0.0 | 0.00 | 0.02 | 0.02 | 53 | 1015.3 |
| 20260502193056 | 61 | 90 | 0.0 | 2.0 | 0.00 | 0.02 | 0.02 | 47 | 1015.4 |
| 20260502192552 | 60 | 343 | 2.0 | 5.0 | 0.00 | 0.02 | 0.02 | 46 | 1015.8 |
| 20260502192050 | 61 | 60 | 1.0 | 2.0 | 0.00 | 0.02 | 0.02 | 50 | 1015.5 |
| 20260502191546 | 61 | 295 | 2.0 | 3.0 | 0.00 | 0.02 | 0.02 | 46 | 1015.7 |
| 20260502191044 | 60 | 270 | 0.0 | 3.0 | 0.00 | 0.02 | 0.02 | 48 | 1015.7 |
| 20260502190542 | 61 | 355 | 0.0 | 0.0 | 0.00 | 0.02 | 0.02 | 50 | 1015.9 |
| 20260502190038 | 60 | 254 | 0.0 | 3.0 | 0.00 | 0.02 | 0.02 | 56 | 1015.8 |
| 20260502185533 | 60 | 270 | 0.0 | 3.0 | 0.00 | 0.02 | 0.02 | 48 | 1015.8 |
| 20260502185030 | 59 | 270 | 0.0 | 2.0 | 0.00 | 0.02 | 0.02 | 55 | 1015.9 |
| 20260502184526 | 59 | 26 | 2.0 | 3.0 | 0.00 | 0.02 | 0.02 | 47 | 1015.9 |
| 20260502184022 | 59 | 292 | 2.0 | 4.0 | 0.00 | 0.02 | 0.02 | 49 | 1016.1 |
| 20260502183518 | 59 | 337 | 1.0 | 3.0 | 0.00 | 0.02 | 0.02 | 54 | 1015.9 |
| 20260502183015 | 60 | 30 | 2.0 | 4.0 | 0.00 | 0.02 | 0.02 | 45 | 1015.9 |
| 20260502182509 | 60 | 0 | 1.0 | 3.0 | 0.00 | 0.02 | 0.02 | 51 | 1015.8 |
| 20260502182006 | 59 | 270 | 2.0 | 4.0 | 0.00 | 0.02 | 0.02 | 49 | 1015.8 |
| 20260502181504 | 60 | 7 | 1.0 | 2.0 | 0.00 | 0.02 | 0.02 | 53 | 1016.0 |
| 20260502181003 | 59 | 15 | 0.0 | 2.0 | 0.00 | 0.02 | 0.02 | 54 | 1016.0 |
| 20260502180459 | 58 | 346 | 0.0 | 6.0 | 0.00 | 0.02 | 0.02 | 53 | 1016.1 |
| 20260502170418 | 59 | 18 | 0.0 | 5.0 | 0.00 | 0.02 | 0.02 | 61 | 1016.4 |
| 20260502163902 | 59 | 3 | 0.0 | 8.0 | 0.00 | 0.02 | 0.02 | 56 | 1016.5 |
| 20260502163358 | 60 | 328 | 0.0 | 4.0 | 0.00 | 0.02 | 0.02 | 56 | 1016.6 |
| 20260502162856 | 60 | 69 | 1.0 | 2.0 | 0.00 | 0.02 | 0.02 | 61 | 1016.8 |
| 20260502162352 | 59 | 60 | 1.0 | 3.0 | 0.00 | 0.02 | 0.02 | 57 | 1016.5 |
| 20260502161849 | 59 | 324 | 0.0 | 3.0 | 0.00 | 0.02 | 0.02 | 60 | 1016.8 |
| 20260502161345 | 59 | 29 | 0.0 | 3.0 | 0.00 | 0.02 | 0.02 | 64 | 1016.9 |
| 20260502160843 | 57 | 307 | 3.0 | 4.0 | 0.00 | 0.02 | 0.02 | 61 | 1017.2 |
| 20260502160342 | 59 | 69 | 1.0 | 3.0 | 0.00 | 0.02 | 0.02 | 63 | 1017.0 |
| 20260502152322 | 56 | 325 | 0.0 | 1.0 | 0.00 | 0.02 | 0.02 | 64 | 1017.4 |
| 20260502151820 | 55 | 23 | 1.0 | 2.0 | 0.00 | 0.02 | 0.02 | 65 | 1017.5 |
| 20260502151316 | 55 | 78 | 1.0 | 2.0 | 0.00 | 0.02 | 0.02 | 67 | 1017.5 |
| 20260502150814 | 55 | 90 | 0.0 | 2.0 | 0.00 | 0.02 | 0.02 | 66 | 1017.6 |
| 20260502150310 | 55 | 81 | 0.0 | 2.0 | 0.00 | 0.02 | 0.02 | 64 | 1017.5 |
| 20260502130659 | 56 | 352 | 0.0 | 3.0 | 0.00 | 0.02 | 0.02 | 72 | 1016.8 |
| 20260502130157 | 56 | 352 | 2.0 | 3.0 | 0.00 | 0.02 | 0.02 | 70 | 1016.6 |
| 20260502123642 | 55 | 98 | 0.0 | 3.0 | 0.00 | 0.02 | 0.02 | 75 | 1016.4 |
| 20260502123139 | 55 | 29 | 0.0 | 3.0 | 0.00 | 0.02 | 0.02 | 73 | 1016.0 |
| 20260502122635 | 55 | 8 | 0.0 | 5.0 | 0.00 | 0.02 | 0.02 | 73 | 1016.3 |
| 20260502122132 | 55 | 341 | 0.0 | 3.0 | 0.00 | 0.02 | 0.02 | 72 | 1016.7 |
| 20260502121630 | 56 | 254 | 0.0 | 3.0 | 0.00 | 0.02 | 0.02 | 73 | 1016.5 |
| 20260502121127 | 55 | 237 | 2.0 | 6.0 | 0.00 | 0.02 | 0.02 | 74 | 1015.4 |
| 20260502120624 | 55 | 5 | 2.0 | 3.0 | 0.00 | 0.02 | 0.02 | 77 | 1015.9 |
| 20260502120121 | 55 | 270 | 3.0 | 3.0 | 0.00 | 0.02 | 0.02 | 73 | 1015.8 |
| 20260502115619 | 55 | 70 | 0.0 | 3.0 | 0.00 | 0.02 | 0.02 | 77 | 1015.4 |
| 20260502115114 | 55 | 84 | 0.0 | 2.0 | 0.00 | 0.02 | 0.02 | 75 | 1016.1 |
| 20260502114610 | 55 | 327 | 6.0 | 7.0 | 0.00 | 0.02 | 0.02 | 72 | 1016.3 |
| 20260502114108 | 55 | 352 | 0.0 | 2.0 | 0.00 | 0.02 | 0.02 | 74 | 1016.1 |
| 20260502113605 | 55 | 120 | 0.0 | 4.0 | 0.00 | 0.02 | 0.02 | 74 | 1015.7 |
| 20260502113104 | 55 | 287 | 2.0 | 3.0 | 0.00 | 0.02 | 0.02 | 77 | 1016.0 |
| 20260502112601 | 55 | 15 | 0.0 | 0.0 | 0.00 | 0.02 | 0.02 | 80 | 1016.0 |
| 20260502112058 | 55 | 305 | 0.0 | 4.0 | 0.00 | 0.02 | 0.02 | 77 | 1015.8 |
| 20260502111556 | 54 | 35 | 0.0 | 1.0 | 0.00 | 0.02 | 0.02 | 83 | 1016.0 |
| 20260502111053 | 54 | 158 | 0.0 | 3.0 | 0.00 | 0.02 | 0.02 | 83 | 1015.8 |
| 20260502110550 | 54 | 279 | 0.0 | 2.0 | 0.00 | 0.02 | 0.02 | 85 | 1015.4 |
| 20260502110048 | 54 | 319 | 2.0 | 3.0 | 0.00 | 0.02 | 0.02 | 86 | 1015.1 |
| 20260502105545 | 53 | 75 | 0.0 | 2.0 | 0.00 | 0.02 | 0.02 | 87 | 1015.3 |
| 20260502105043 | 53 | 53 | 0.0 | 4.0 | 0.00 | 0.02 | 0.02 | 89 | 1015.3 |
| 20260502104539 | 53 | 81 | 0.0 | 1.0 | 0.00 | 0.02 | 0.02 | 90 | 1015.2 |
| 20260502104037 | 54 | 0 | 0.0 | 1.0 | 0.00 | 0.02 | 0.02 | 90 | 1015.3 |
| 20260502103534 | 54 | 331 | 0.0 | 1.0 | 0.00 | 0.02 | 0.02 | 89 | 1015.3 |
| 20260502103032 | 53 | 57 | 3.0 | 3.0 | 0.00 | 0.02 | 0.02 | 90 | 1015.7 |
| 20260502102528 | 53 | 74 | 0.0 | 1.0 | 0.00 | 0.02 | 0.02 | 93 | 1015.3 |
| 20260502102026 | 53 | 23 | 1.0 | 2.0 | 0.00 | 0.02 | 0.02 | 96 | 1015.1 |
| 20260502101523 | 53 | 35 | 0.0 | 0.0 | 0.00 | 0.02 | 0.02 | 96 | 1015.3 |
| 20260502101022 | 53 | 35 | 0.0 | 1.0 | 0.00 | 0.02 | 0.02 | 97 | 1015.1 |
| 20260502100520 | 53 | 63 | 0.0 | 2.0 | 0.00 | 0.02 | 0.02 | 97 | 1015.3 |
| 20260502091454 | 54 | 60 | 0.0 | 2.0 | 0.02 | 0.01 | 0.01 | 97 | 1016.3 |
| 20260502090952 | 54 | 81 | 0.0 | 0.0 | 0.02 | 0.01 | 0.01 | 97 | 1016.4 |
| 20260502090448 | 54 | 81 | 0.0 | 0.0 | 0.00 | 0.01 | 0.01 | 97 | 1016.2 |
| 20260502071343 | 53 | 81 | 0.0 | 0.0 | 0.00 | 0.00 | 0.00 | 98 | 1014.7 |
| 20260502070841 | 53 | 81 | 0.0 | 0.0 | 0.00 | 0.00 | 0.00 | 98 | 1014.7 |
| 20260502070338 | 53 | 81 | 0.0 | 0.0 | 0.00 | 0.00 | 0.00 | 98 | 1014.6 |
| 20260502065837 | 53 | 81 | 0.0 | 1.0 | 0.00 | 0.00 | 0.00 | 98 | 1014.8 |
| 20260502065335 | 53 | 14 | 0.0 | 0.0 | 0.00 | 0.00 | 0.00 | 98 | 1014.7 |
| 20260502064833 | 53 | 14 | 0.0 | 0.0 | 0.00 | 0.00 | 0.00 | 98 | 1014.7 |
| 20260502064331 | 53 | 14 | 0.0 | 0.0 | 0.00 | 0.00 | 0.00 | 98 | 1014.9 |
| 20260502063827 | 53 | 14 | 0.0 | 0.0 | 0.00 | 0.00 | 0.00 | 98 | 1014.7 |
| 20260502063325 | 53 | 14 | 0.0 | 0.0 | 0.00 | 0.00 | 0.00 | 98 | 1014.8 |
| 20260502062822 | 53 | 66 | 0.0 | 1.0 | 0.00 | 0.00 | 0.00 | 98 | 1014.8 |
| 20260502062320 | 53 | 0 | 0.0 | 0.0 | 0.00 | 0.00 | 0.00 | 97 | 1014.8 |
| 20260502061819 | 53 | 81 | 0.0 | 0.0 | 0.00 | 0.00 | 0.00 | 97 | 1014.9 |
| 20260502061316 | 53 | 81 | 0.0 | 2.0 | 0.00 | 0.00 | 0.00 | 97 | 1015.0 |
| 20260502060811 | 53 | 0 | 0.0 | 0.0 | 0.00 | 0.00 | 0.00 | 96 | 1015.2 |
| 20260502060307 | 54 | 60 | 0.0 | 1.0 | 0.00 | 0.00 | 0.00 | 96 | 1015.2 |
| 20260502055805 | 53 | 0 | 0.0 | 0.0 | 0.00 | 0.00 | 0.00 | 96 | 1015.1 |
| 20260502055305 | 53 | 0 | 0.0 | 0.0 | 0.00 | 0.00 | 0.00 | 96 | 1015.1 |
| 20260502054802 | 53 | 0 | 0.0 | 1.0 | 0.00 | 0.00 | 0.00 | 96 | 1015.2 |
| 20260502054259 | 53 | 81 | 0.0 | 0.0 | 0.00 | 0.00 | 0.00 | 96 | 1015.1 |
| 20260502053756 | 53 | 81 | 0.0 | 0.0 | 0.00 | 0.00 | 0.00 | 96 | 1015.3 |
| 20260502053253 | 53 | 81 | 0.0 | 0.0 | 0.00 | 0.00 | 0.00 | 96 | 1015.4 |
| 20260502052751 | 53 | 81 | 0.0 | 0.0 | 0.00 | 0.00 | 0.00 | 96 | 1015.1 |
| 20260502052249 | 53 | 69 | 0.0 | 3.0 | 0.00 | 0.00 | 0.00 | 96 | 1015.3 |
| 20260502051746 | 53 | 270 | 0.0 | 0.0 | 0.00 | 0.00 | 0.00 | 95 | 1015.3 |
| 20260502051245 | 53 | 270 | 0.0 | 0.0 | 0.00 | 0.00 | 0.00 | 95 | 1015.5 |
| 20260502050741 | 53 | 270 | 0.0 | 0.0 | 0.00 | 0.00 | 0.00 | 95 | 1015.3 |
| 20260502050236 | 53 | 270 | 0.0 | 0.0 | 0.00 | 0.00 | 0.00 | 95 | 1015.5 |
| 20260502045734 | 53 | 270 | 0.0 | 0.0 | 0.00 | 0.00 | 0.00 | 95 | 1015.7 |
| 20260502045231 | 53 | 270 | 0.0 | 0.0 | 0.00 | 0.00 | 0.00 | 95 | 1015.5 |
| 20260502044728 | 53 | 270 | 0.0 | 0.0 | 0.00 | 0.00 | 0.00 | 95 | 1015.5 |
| 20260502044224 | 53 | 270 | 0.0 | 0.0 | 0.00 | 0.00 | 0.00 | 96 | 1015.9 |
| 20260502043722 | 53 | 270 | 0.0 | 0.0 | 0.00 | 0.00 | 0.00 | 96 | 1015.9 |
| 20260502043219 | 53 | 270 | 0.0 | 0.0 | 0.00 | 0.00 | 0.00 | 96 | 1015.9 |
| 20260502042718 | 53 | 270 | 0.0 | 0.0 | 0.00 | 0.00 | 0.00 | 95 | 1016.0 |
| 20260502042216 | 53 | 270 | 0.0 | 0.0 | 0.00 | 0.00 | 0.00 | 95 | 1015.4 |
| 20260502041713 | 53 | 270 | 0.0 | 0.0 | 0.00 | 0.00 | 0.00 | 95 | 1015.7 |
| 20260502041210 | 53 | 270 | 0.0 | 0.0 | 0.00 | 0.00 | 0.00 | 95 | 1015.5 |
| 20260502040707 | 53 | 270 | 0.0 | 0.0 | 0.00 | 0.00 | 0.00 | 95 | 1015.8 |
| 20260502040204 | 53 | 90 | 0.0 | 0.0 | 0.00 | 0.00 | 0.00 | 95 | 1016.0 |
| 20260502035700 | 54 | 90 | 0.0 | 0.0 | 0.00 | 0.00 | 0.00 | 95 | 1016.0 |
| 20260502035157 | 54 | 90 | 0.0 | 0.0 | 0.00 | 0.00 | 0.00 | 95 | 1015.8 |
| 20260502034655 | 54 | 90 | 0.0 | 0.0 | 0.00 | 0.00 | 0.00 | 94 | 1015.7 |
| 20260502034153 | 54 | 90 | 0.0 | 0.0 | 0.00 | 0.00 | 0.00 | 93 | 1015.8 |
| 20260502033651 | 54 | 90 | 0.0 | 0.0 | 0.00 | 0.00 | 0.00 | 93 | 1015.9 |
| 20260502033148 | 55 | 90 | 0.0 | 0.0 | 0.00 | 0.00 | 0.00 | 93 | 1015.8 |
| 20260502032645 | 55 | 90 | 0.0 | 0.0 | 0.00 | 0.00 | 0.00 | 92 | 1015.8 |
| 20260502032141 | 56 | 49 | 0.0 | 2.0 | 0.00 | 0.00 | 0.00 | 90 | 1016.1 |
| 20260502031639 | 55 | 0 | 0.0 | 0.0 | 0.00 | 0.00 | 0.00 | 88 | 1016.1 |
| 20260502031136 | 55 | 0 | 0.0 | 0.0 | 0.00 | 0.00 | 0.00 | 87 | 1016.2 |
| 20260502030635 | 55 | 0 | 0.0 | 0.0 | 0.00 | 0.00 | 0.00 | 87 | 1016.3 |
| 20260502030133 | 56 | 0 | 0.0 | 0.0 | 0.00 | 0.00 | 0.00 | 87 | 1016.3 |
| 20260502025629 | 55 | 0 | 0.0 | 0.0 | 0.00 | 0.00 | 0.00 | 86 | 1016.3 |
| 20260502025128 | 56 | 0 | 0.0 | 0.0 | 0.00 | 0.00 | 0.00 | 86 | 1016.1 |
| 20260502024625 | 56 | 0 | 0.0 | 0.0 | 0.00 | 0.00 | 0.00 | 85 | 1016.1 |
| 20260502024123 | 56 | 0 | 0.0 | 0.0 | 0.00 | 0.00 | 0.00 | 86 | 1016.2 |
| 20260502023621 | 56 | 0 | 0.0 | 0.0 | 0.00 | 0.00 | 0.00 | 85 | 1016.2 |
| 20260502023118 | 56 | 0 | 0.0 | 0.0 | 0.00 | 0.00 | 0.00 | 85 | 1016.2 |
| 20260502022614 | 56 | 0 | 0.0 | 0.0 | 0.00 | 0.00 | 0.00 | 85 | 1016.1 |
| 20260502022112 | 56 | 0 | 0.0 | 0.0 | 0.00 | 0.00 | 0.00 | 84 | 1016.1 |
| 20260502021609 | 56 | 0 | 0.0 | 0.0 | 0.00 | 0.00 | 0.00 | 84 | 1016.2 |
| 20260502021106 | 56 | 0 | 0.0 | 0.0 | 0.00 | 0.00 | 0.00 | 85 | 1016.6 |
| 20260502020604 | 56 | 0 | 0.0 | 0.0 | 0.00 | 0.00 | 0.00 | 85 | 1016.2 |
| 20260502020100 | 56 | 0 | 0.0 | 0.0 | 0.00 | 0.00 | 0.00 | 85 | 1016.1 |
| 20260502015558 | 56 | 0 | 0.0 | 0.0 | 0.00 | 0.00 | 0.00 | 85 | 1016.1 |
| 20260502015054 | 56 | 0 | 0.0 | 0.0 | 0.00 | 0.00 | 0.00 | 84 | 1016.2 |
| 20260502014551 | 56 | 0 | 0.0 | 0.0 | 0.00 | 0.00 | 0.00 | 84 | 1016.2 |
| 20260502014048 | 57 | 0 | 0.0 | 0.0 | 0.00 | 0.00 | 0.00 | 84 | 1016.1 |
| 20260502013543 | 57 | 0 | 0.0 | 0.0 | 0.00 | 0.00 | 0.00 | 83 | 1016.2 |
| 20260502013040 | 57 | 0 | 0.0 | 0.0 | 0.00 | 0.00 | 0.00 | 83 | 1016.0 |
| 20260502012538 | 57 | 0 | 0.0 | 0.0 | 0.00 | 0.00 | 0.00 | 83 | 1016.1 |
| 20260502012035 | 57 | 0 | 0.0 | 0.0 | 0.00 | 0.00 | 0.00 | 83 | 1016.1 |
| 20260502011532 | 57 | 0 | 0.0 | 0.0 | 0.00 | 0.00 | 0.00 | 83 | 1016.0 |
| 20260502011028 | 57 | 0 | 0.0 | 0.0 | 0.00 | 0.00 | 0.00 | 81 | 1015.9 |
| 20260502010526 | 57 | 0 | 0.0 | 0.0 | 0.00 | 0.00 | 0.00 | 82 | 1016.0 |
| 20260502010022 | 57 | 0 | 0.0 | 0.0 | 0.00 | 0.00 | 0.00 | 81 | 1016.1 |
| 20260502005520 | 57 | 0 | 0.0 | 0.0 | 0.00 | 0.00 | 0.00 | 80 | 1015.8 |
| 20260502005017 | 58 | 0 | 0.0 | 0.0 | 0.00 | 0.00 | 0.00 | 79 | 1015.8 |
| 20260502004513 | 58 | 0 | 0.0 | 0.0 | 0.00 | 0.00 | 0.00 | 78 | 1015.5 |
| 20260502004010 | 58 | 0 | 0.0 | 0.0 | 0.00 | 0.00 | 0.00 | 78 | 1015.5 |
| 20260502003508 | 59 | 0 | 0.0 | 0.0 | 0.00 | 0.00 | 0.00 | 77 | 1015.7 |
| 20260502003004 | 59 | 0 | 0.0 | 0.0 | 0.00 | 0.00 | 0.00 | 77 | 1015.3 |
| 20260502002501 | 59 | 0 | 0.0 | 0.0 | 0.00 | 0.00 | 0.00 | 75 | 1015.2 |
| 20260502001958 | 60 | 0 | 0.0 | 0.0 | 0.00 | 0.00 | 0.00 | 74 | 1015.1 |
| 20260502001455 | 60 | 0 | 0.0 | 0.0 | 0.00 | 0.00 | 0.00 | 75 | 1015.0 |
| 20260502000953 | 60 | 0 | 0.0 | 0.0 | 0.00 | 0.00 | 0.00 | 73 | 1014.8 |
| 20260502000454 | 60 | 0 | 0.0 | 0.0 | 0.00 | 0.00 | 0.00 | 74 | 1014.8 |
| 20260501235947 | 60 | 0 | 0.0 | 0.0 | 0.00 | 0.00 | 0.00 | 73 | 1015.1 |
| 20260501235443 | 61 | 0 | 0.0 | 0.0 | 0.00 | 0.00 | 0.00 | 72 | 1014.9 |
| 20260501234938 | 61 | 0 | 0.0 | 0.0 | 0.00 | 0.00 | 0.00 | 70 | 1014.8 |
| 20260501234435 | 62 | 0 | 0.0 | 1.0 | 0.00 | 0.00 | 0.00 | 70 | 1014.7 |
| 20260501233934 | 62 | 8 | 0.0 | 0.0 | 0.00 | 0.00 | 0.00 | 69 | 1014.6 |
| 20260501233431 | 62 | 8 | 0.0 | 0.0 | 0.00 | 0.00 | 0.00 | 68 | 1014.7 |
| 20260501232927 | 63 | 63 | 0.0 | 0.0 | 0.00 | 0.00 | 0.00 | 67 | 1014.7 |
| 20260501232424 | 63 | 63 | 0.0 | 0.0 | 0.00 | 0.00 | 0.00 | 66 | 1014.7 |
| 20260501231921 | 64 | 63 | 0.0 | 0.0 | 0.00 | 0.00 | 0.00 | 65 | 1014.7 |
| 20260501231420 | 64 | 60 | 0.0 | 0.0 | 0.00 | 0.00 | 0.00 | 64 | 1014.5 |